User: anonymous   Login
Location: Unspecified
(0.0000°N, 0.0000°E)
Time: 18:39:27
(UTC+02:00)
Language:

Cosmos 1898 Rocket - Orbit

View from above orbital plane
View from above orbital plane
View from above satellite
View from above satellite

Ground track
Ground track

The orbit data is extracted from the following two-line orbital elements,

1 18586U 87098B   17206.25711757 +.00000109 +00000-0 +45806-4 0  9998
2 18586 074.0050 225.2332 0022338 272.9083 160.5912 14.36787011552525
Epoch (UTC): 25 July 2017 06:10:14
Eccentricity: 0.0022338
inclination: 74.0050°
perigee height: 753 km
apogee height: 785 km
right ascension of ascending node: 225.2332°
argument of perigee: 272.9083°
revolutions per day: 14.36787011
mean anomaly at epoch: 160.5912°
orbit number at epoch: 55252

The dashed part of the orbit path shows where the satellite is in the earth's shadow,  

DLR